This is the latest recevied weather packets stored in our database for station/object W6DSP. If no packets are shown the sender has not sent any weather packets the latest 10 day(s).
| Time | Temp. | Humidity | Pressure | Rain* | Wind** | Luminosity | Snow |
|---|---|---|---|---|---|---|---|
| 1777731476 | 6.67° C | 58% | 1020.7 hPa | 0 mm | - | - | - |
| 1777730743 | 6.11° C | 59% | 1020.8 hPa | 0 mm | - | - | - |
| 1777729997 | 6.11° C | 59% | 1020.7 hPa | 0 mm | - | - | - |
| 1777729273 | 6.11° C | 62% | 1020.7 hPa | 0 mm | - | - | - |
| 1777728515 | 5.56° C | 63% | 1020.7 hPa | 0 mm | - | - | - |
| 1777727759 | 5° C | 69% | 1020.7 hPa | 0 mm | - | - | - |
| 1777727057 | 5° C | 71% | 1020.6 hPa | 0 mm | - | - | - |
| 1777726337 | 5° C | 75% | 1020.4 hPa | 0 mm | - | - | - |
| 1777725621 | 4.44° C | 76% | 1020.4 hPa | 0 mm | - | - | - |
| 1777724897 | 3.89° C | 77% | 1020.3 hPa | 0 mm | - | - | - |
| 1777724139 | 3.33° C | 78% | 1020.1 hPa | 0 mm | - | - | - |
| 1777723436 | 2.78° C | 79% | 1020.1 hPa | 0 mm | - | - | - |
| 1777722697 | 2.22° C | 80% | 1020.1 hPa | 0 mm | - | - | - |
| 1777721978 | 1.11° C | 84% | 1020.1 hPa | 0 mm | - | - | - |
| 1777721253 | 0.56° C | 85% | 1019.9 hPa | 0 mm | - | - | - |
| 1777720539 | 0° C | 85% | 1019.8 hPa | 0 mm | - | - | - |
| 1777719781 | 0° C | 85% | 1019.7 hPa | 0 mm | - | - | - |
| 1777719040 | -0.56° C | 85% | 1019.5 hPa | 0 mm | - | - | - |
| 1777718319 | -0.56° C | 85% | 1019.5 hPa | 0 mm | - | - | - |
| 1777717579 | 0° C | 85% | 1019.4 hPa | 0 mm | - | - | - |
| 1777716839 | 0° C | 85% | 1019.5 hPa | 0 mm | - | - | - |
| 1777716124 | 0° C | 85% | 1019.4 hPa | 0 mm | - | - | - |
| 1777715414 | 0° C | 84% | 1019.3 hPa | 0 mm | - | - | - |
| 1777714719 | 0° C | 84% | 1019.3 hPa | 0 mm | - | - | - |
| 1777713998 | 0° C | 84% | 1019.3 hPa | 0 mm | - | - | - |
* Rain latest hour (hover to see other rain measurements)
** Current wind speed in m/s (hover to see current wind gust speed)